Location: Kielce
(50.8833°N, 20.6167°E)
Time: 22:35:44
(UTC+02:00)

SR - Pass Details

Date: 23 April 2021
Orbit: 573 x 882 km, 66.7° (Epoch: 09 May)

Event Time Altitude Azimuth Distance (km) Brightness Sun altitude
Rises 09:30:24 0° 257° (WSW) 3,405 ? 36.5°
Reaches altitude 10° 09:33:10 10° 269° (W) 2,502 ? 36.9°
Maximum altitude 09:38:14 30° 329° (NNW) 1,540 ? 37.6°
Drops below altitude 10° 09:43:25 10° 29° (NNE) 2,548 ? 38.3°
Sets 09:46:15 0° 40° (NE) 3,478 ? 38.6°
